[[{"header":{"parameterUnit":"m.s-1","parameterCategory":1,"la1":30.2991,"la2":30.254,"lo1":-89.0895,"lo2":-89.0444,"dy":0.0017,"dx":0.0017,"nx":28,"ny":28,"refTime":"2024-03-21T09:00:00:Z","depth":0,"parameterNumber":2,"parameterNumberName":"U-component_of_WINDS"},"data":[0,0,0,0,0,0,0,0,0,0,0,0,0,0,0,0,0,0,0,0,0,0,0,0,0,0,0,0,0,0,0,0,0,0,0,0,0,0,0,0,0,0,0,0,0,0,0,0,0,0,0,0,0,0,0,0,0,0,1.3157,1.3158,0,1.318,1.318,1.3181,1.3113,1.3111,1.3109,1.3107,1.313,1.3132,1.3135,0,0,0,0,0,0,0,0,0,0,0,0,0,1.3054,1.3056,1.3157,1.3158,1.3158,1.318,1.318,1.3181,1.3114,1.3111,1.3109,1.3106,1.3129,1.3132,1.3135,0,0,0,0,0,0,0,0,0,0,0,0,0,1.309,1.3057,1.3157,1.3127,1.3125,1.318,1.318,1.3181,1.3114,1.3111,1.3108,1.3105,1.3128,1.3132,1.3135,1.3221,0,0,1.3147,1.3149,0,0,0,0,0,0,0,0,1.3088,1.3094,1.3131,1.3129,1.3127,1.3141,1.3152,1.3194,1.3115,1.3118,1.3107,1.3104,1.3136,1.3139,1.315,1.3222,1.3223,1.3147,1.315,1.3151,1.3152,0,0,0,0,0,0,0,1.3086,1.3093,1.3166,1.3132,1.3129,1.3112,1.3114,1.316,1.3144,1.3118,1.3113,1.3116,1.3134,1.3146,1.315,1.3223,1.3147,1.315,1.3153,1.3154,1.3364,1.3367,0,0,0,0,0,0,1.3087,1.3091,1.3166,1.3167,1.3099,1.3116,1.3118,1.3139,1.3143,1.3141,1.3119,1.3113,1.3141,1.3145,1.315,1.3249,1.3151,1.3155,1.3157,1.3361,1.3365,1.3368,0,0,0,0,0,0,1.3085,1.3095,1.3165,1.3128,1.3135,1.3121,1.3146,1.3141,1.3154,1.3144,1.3141,1.3135,1.3139,1.3145,1.3203,1.3249,1.3156,1.316,1.3357,1.3362,1.3367,1.3448,0,0,0,0,0,0,1.3083,1.3094,1.3127,1.3129,1.3138,1.3218,1.3148,1.3144,1.316,1.3153,1.3158,1.3156,1.3137,1.3198,1.3207,1.3252,1.3163,1.3353,1.3359,1.3365,1.3441,1.3455,1.3467,0,0,0,0,0,1.3079,1.3149,1.3129,1.3138,1.3178,1.3221,1.3225,1.3202,1.3164,1.3197,1.3191,1.3156,1.3243,1.3205,1.3214,1.3261,1.335,1.3357,1.3365,1.3435,1.3452,1.3466,0,0,0,0,0,0,1.3152,1.3149,1.3126,1.3199,1.3211,1.3209,1.3249,1.3221,1.3244,1.3236,1.3206,1.3208,1.3271,1.3272,1.323,1.3343,1.329,1.3299,1.334,1.3356,1.3369,1.3366,1.3166,0,0,0,0,0,1.3177,1.3213,1.3207,1.3272,1.3279,1.3263,1.3281,1.3262,1.3273,1.3277,1.3276,1.3287,1.3316,1.3337,1.3364,1.3441,1.3441,1.3478,1.3491,1.3502,1.351,1.355,1.3566,1.3393,1.3393,1.3393,0,0,1.3228,1.3231,1.3255,1.3286,1.3293,1.3329,1.3268,1.3309,1.3335,1.3283,1.3338,1.3337,1.3348,1.3416,1.3446,1.3419,1.3558,1.3512,1.352,1.3522,1.3559,1.3575,1.359,1.3398,1.3397,1.3396,0,0,1.3339,1.3346,1.3399,1.3407,1.3418,1.3408,1.3421,1.3424,1.3421,1.3475,1.3437,1.3468,1.352,1.3528,1.354,1.3654,1.3623,1.3664,1.3731,1.377,1.3783,1.3795,1.3834,1.3849,1.3673,1.3673,1.3673,0,1.3401,1.3455,1.343,1.3474,1.3488,1.3444,1.3497,1.3506,1.3525,1.3536,1.3506,1.357,1.3574,1.3642,1.367,1.3682,1.3694,1.3662,1.3784,1.3795,1.3806,1.3843,1.3858,1.3678,1.3677,1.3677,1.3676,0,1.3529,1.3567,1.3609,1.3629,1.3648,1.3697,1.3679,1.3701,1.3681,1.3674,1.3729,1.3733,1.3759,1.3774,1.3755,1.384,1.3822,1.3789,1.3734,1.3828,1.3862,1.3876,1.3685,1.3683,1.3681,1.368,0,0,1.3686,1.3692,1.3707,1.3715,1.3724,1.3752,1.3799,1.3825,1.3844,1.3859,1.3896,1.3941,1.391,1.3922,1.3904,1.3939,1.4027,1.39,1.39,1.3922,1.4119,1.4142,1.4159,1.4007,1.4009,1.4012,1.4117,0,1.3794,1.3873,1.3852,1.393,1.3964,1.3922,1.3962,1.3972,1.3966,1.3994,1.3987,1.4019,1.3976,1.3983,1.4015,1.4009,1.4066,1.4002,1.4039,1.4041,1.4036,1.4177,1.4203,1.4302,1.413,1.4133,1.4134,0,1.393,1.395,1.4032,1.4035,1.4048,1.4084,1.4105,1.4133,1.4143,1.4136,1.4151,1.4125,1.417,1.4116,1.4177,1.4134,1.4148,1.4148,1.4151,1.4152,1.4092,1.418,1.4333,1.4348,1.4155,1.4154,1.4152,0,1.4033,1.4081,1.4136,1.4144,1.4149,1.4175,1.4179,1.4186,1.4202,1.4221,1.4231,1.4255,1.4268,1.4287,1.4268,1.4231,1.4331,1.4276,1.4325,1.4326,1.4346,1.4345,1.4502,1.436,1.4359,1.4359,1.4359,0,1.4154,1.4206,1.4182,1.4216,1.4271,1.4247,1.4303,1.4301,1.4308,1.434,1.4306,1.4336,1.4311,1.4339,1.4325,1.4376,1.4383,1.4377,1.4373,1.4379,1.438,1.4387,1.4378,1.4363,1.4362,1.4361,1.4361,0,1.4278,1.4265,1.4321,1.4322,1.4323,1.4364,1.4364,1.4394,1.4386,1.4427,1.4435,1.4423,1.4454,1.4438,1.447,1.4461,1.4526,1.4513,1.4523,1.4519,1.4568,1.4563,1.4733,1.4754,1.46,1.4602,1.4603,0,1.4356,1.4394,1.4398,1.4417,1.4423,1.4454,1.4471,1.4448,1.4467,1.4481,1.451,1.4538,1.4559,1.4611,1.4605,1.4629,1.4615,1.4673,1.4618,1.4624,1.4613,1.4611,1.4613,1.4684,1.4685,1.4687,1.4688,0,1.4493,1.4485,1.451,1.4533,1.4554,1.4571,1.4586,1.4603,1.4581,1.4604,1.4635,1.4652,1.4685,1.4713,1.4734,1.4737,1.4709,1.4706,1.4718,1.4724,1.4727,1.4724,1.4551,1.4701,1.47,1.4699,1.4698,1.4698,1.4594,1.4626,1.4634,1.4663,1.4672,1.4686,1.4714,1.471,1.4736,1.4761,1.4746,1.4783,1.4791,1.4817,1.4823,1.4851,1.4828,1.4846,1.485,1.4855,1.486,1.4725,1.4855,1.4855,1.4854,1.4854,1.4854,0,1.4728,1.4731,1.4759,1.478,1.4803,1.4775,1.4789,1.481,1.4843,1.4853,1.4875,1.4911,1.4938,1.4934,1.4958,1.4981,1.4969,1.4988,1.4985,1.4986,1.4881,1.4867,1.4998,1.4998,1.4998,1.4998,1.4998,1.4998,1.48,1.4852,1.4844,1.4899,1.4902,1.4938,1.4948,1.496,1.4968,1.501,1.5032,1.503,1.5034,1.5059,1.5082,1.508,1.509,1.5114,1.5107,1.5008,1.4994,1.498,1.4966,1.5117,1.5117,1.5209,1.521,1.5211]},{"header":{"parameterUnit":"m.s-1","parameterCategory":1,"la1":30.2991,"la2":30.254,"lo1":-89.0895,"lo2":-89.0444,"dy":0.0017,"dx":0.0017,"nx":28,"ny":28,"refTime":"2024-03-21T09:00:00:Z","depth":0,"parameterNumber":3,"parameterNumberName":"V-component_of_WINDS"},"data":[0,0,0,0,0,0,0,0,0,0,0,0,0,0,0,0,0,0,0,0,0,0,0,0,0,0,0,0,0,0,0,0,0,0,0,0,0,0,0,0,0,0,0,0,0,0,0,0,0,0,0,0,0,0,0,0,0,0,0.5401,0.5401,0,0.5401,0.5401,0.5401,0.5352,0.5351,0.5349,0.5348,0.535,0.5351,0.5352,0,0,0,0,0,0,0,0,0,0,0,0,0,0.5359,0.536,0.5401,0.5401,0.5401,0.5401,0.5401,0.5401,0.5352,0.535,0.5349,0.5347,0.5349,0.5351,0.5352,0,0,0,0,0,0,0,0,0,0,0,0,0,0.537,0.536,0.5401,0.5376,0.5374,0.5401,0.5401,0.5401,0.5352,0.535,0.5349,0.5347,0.5349,0.5351,0.5353,0.5403,0,0,0.5358,0.5359,0,0,0,0,0,0,0,0,0.5369,0.5371,0.538,0.5378,0.5376,0.5374,0.5387,0.5402,0.5353,0.5361,0.5348,0.5346,0.536,0.536,0.5365,0.5403,0.5403,0.5358,0.536,0.536,0.5361,0,0,0,0,0,0,0,0.5369,0.5371,0.5401,0.538,0.5378,0.5366,0.5365,0.5389,0.5371,0.536,0.5356,0.5357,0.5358,0.5363,0.5364,0.5403,0.5358,0.536,0.5361,0.5362,0.5481,0.5483,0,0,0,0,0,0,0.5371,0.5371,0.5401,0.5401,0.5368,0.5368,0.5367,0.5377,0.5371,0.5368,0.5359,0.5355,0.5361,0.5362,0.5364,0.5422,0.536,0.5362,0.5363,0.5479,0.5481,0.5484,0,0,0,0,0,0,0.537,0.5374,0.5401,0.5385,0.5387,0.5371,0.5382,0.5378,0.5383,0.537,0.5366,0.5367,0.5359,0.5362,0.5393,0.5422,0.5363,0.5365,0.5477,0.548,0.5483,0.5539,0,0,0,0,0,0,0.5369,0.5374,0.5393,0.5386,0.5388,0.543,0.5383,0.5379,0.5386,0.5381,0.5377,0.5374,0.5358,0.5391,0.5395,0.5423,0.5366,0.5474,0.5478,0.5482,0.5534,0.5543,0.5551,0,0,0,0,0,0.5368,0.541,0.5395,0.5398,0.5412,0.5432,0.5433,0.5413,0.5388,0.5407,0.5399,0.5374,0.5418,0.5394,0.5399,0.5428,0.5472,0.5477,0.5481,0.5531,0.5542,0.5551,0,0,0,0,0,0,0.5423,0.5409,0.5391,0.5432,0.5433,0.5423,0.5447,0.5426,0.5435,0.543,0.5405,0.5404,0.544,0.5437,0.5411,0.5475,0.544,0.5446,0.5476,0.5487,0.5495,0.5495,0.5368,0,0,0,0,0,0.5439,0.5456,0.5443,0.548,0.5481,0.5464,0.5472,0.5456,0.5457,0.5457,0.5451,0.5453,0.5466,0.5476,0.5488,0.5533,0.5531,0.5555,0.5564,0.557,0.5576,0.5598,0.5609,0.5499,0.5499,0.5499,0,0,0.5474,0.5468,0.5481,0.5491,0.549,0.5508,0.5465,0.5486,0.5499,0.5461,0.549,0.5485,0.5485,0.5523,0.554,0.5522,0.5606,0.5576,0.5582,0.5584,0.5604,0.5615,0.5624,0.5502,0.5501,0.5501,0,0,0.5547,0.5544,0.5574,0.5574,0.5572,0.556,0.5567,0.556,0.5555,0.5584,0.5555,0.557,0.5594,0.5595,0.5599,0.567,0.5648,0.5674,0.5718,0.5741,0.5749,0.5757,0.5782,0.5791,0.568,0.568,0.568,0,0.5591,0.5616,0.5593,0.5615,0.562,0.5584,0.5614,0.5615,0.5618,0.5623,0.5602,0.5631,0.5629,0.5666,0.5683,0.5688,0.5695,0.5675,0.575,0.5757,0.5764,0.5787,0.5797,0.5683,0.5683,0.5682,0.5682,0,0.567,0.5688,0.5712,0.5714,0.5722,0.5748,0.5729,0.5739,0.5722,0.5712,0.5741,0.5736,0.5746,0.5754,0.5738,0.5789,0.5778,0.5754,0.5718,0.5778,0.5799,0.5808,0.5688,0.5687,0.5686,0.5685,0,0,0.5778,0.5766,0.5775,0.5775,0.577,0.5784,0.5808,0.5816,0.5826,0.5828,0.5848,0.5868,0.5846,0.585,0.5834,0.5853,0.5909,0.5827,0.5827,0.5842,0.5963,0.5981,0.5992,0.5894,0.5895,0.5896,0.5963,0,0.5848,0.5888,0.5867,0.591,0.5926,0.5891,0.5912,0.5911,0.5902,0.5914,0.5904,0.5919,0.5888,0.589,0.5908,0.5898,0.5933,0.5893,0.5912,0.5913,0.5913,0.6003,0.6023,0.6086,0.5972,0.5973,0.5974,0,0.5936,0.5941,0.5985,0.5975,0.5981,0.6,0.6006,0.6018,0.6016,0.6007,0.6011,0.599,0.6013,0.5977,0.6008,0.5981,0.5987,0.5983,0.5985,0.5987,0.5947,0.6007,0.6106,0.6115,0.5987,0.5986,0.5985,0,0.601,0.6028,0.6056,0.6057,0.6047,0.6061,0.6057,0.6053,0.6059,0.6064,0.6068,0.6076,0.608,0.6086,0.6068,0.6043,0.6101,0.6063,0.6095,0.6095,0.6109,0.6108,0.621,0.6113,0.6113,0.6112,0.6112,0,0.6091,0.6119,0.6089,0.6107,0.6137,0.6112,0.6143,0.6136,0.6132,0.6147,0.6118,0.6133,0.6107,0.612,0.6105,0.6133,0.6135,0.6129,0.6125,0.6132,0.6132,0.6136,0.6131,0.6115,0.6114,0.6114,0.6113,0,0.6179,0.6161,0.6189,0.6176,0.6173,0.6196,0.6185,0.6201,0.6189,0.6209,0.6212,0.6193,0.6206,0.6188,0.6199,0.6189,0.6227,0.6216,0.6227,0.6224,0.6256,0.6254,0.6364,0.6377,0.6271,0.6272,0.6273,0,0.6232,0.6253,0.6241,0.6249,0.6247,0.626,0.6265,0.6241,0.6248,0.6246,0.6261,0.6272,0.6279,0.6301,0.6289,0.6297,0.6286,0.6324,0.6288,0.6294,0.6287,0.6286,0.6288,0.6332,0.6334,0.6335,0.6335,0,0.6328,0.6317,0.6325,0.633,0.6337,0.6341,0.6342,0.635,0.6324,0.6333,0.6345,0.6351,0.6361,0.6372,0.6377,0.6373,0.635,0.6347,0.6354,0.6362,0.6368,0.6365,0.6248,0.6345,0.6344,0.6343,0.6343,0.6342,0.64,0.6416,0.641,0.642,0.6418,0.6419,0.6432,0.6421,0.6431,0.6437,0.6422,0.6438,0.6434,0.6438,0.6436,0.6448,0.6432,0.6443,0.6446,0.6449,0.6454,0.6365,0.6449,0.6449,0.6449,0.6449,0.6448,0,0.6493,0.6487,0.6497,0.6498,0.6506,0.6482,0.6481,0.649,0.6504,0.6502,0.6508,0.6522,0.6532,0.652,0.6527,0.6539,0.6529,0.6542,0.6541,0.654,0.6469,0.6461,0.655,0.655,0.655,0.655,0.655,0.655,0.6543,0.6569,0.6557,0.6581,0.6575,0.6589,0.6591,0.6591,0.6589,0.6606,0.6613,0.6604,0.6598,0.6604,0.6612,0.6608,0.6612,0.6629,0.6622,0.6555,0.6545,0.6536,0.6529,0.663,0.6631,0.6692,0.6693,0.6693]}]]